TimeEDT,TemperatureF,Dew PointF,Humidity,Sea Level PressureIn,VisibilityMPH,Wind Direction,Wind SpeedMPH,Gust SpeedMPH,PrecipitationIn,Events,Conditions,WindDirDegrees,DateUTC
12:20 AM,21.2,17.6,86,30.14,1.8,NW,11.5,-,0.00,Snow,Light Snow,310,2013-03-14 04:20:00
12:28 AM,21.2,19.4,93,30.14,0.8,NW,10.4,-,0.00,Snow,Light Snow,320,2013-03-14 04:28:00
12:41 AM,21.2,17.6,86,30.14,2.5,NW,11.5,23.0,0.00,Snow,Light Snow,310,2013-03-14 04:41:00
12:47 AM,21.2,17.6,86,30.14,8.0,NW,11.5,24.2,0.00,Snow,Light Snow,310,2013-03-14 04:47:00
12:48 AM,21.9,17.1,82,30.25,8.0,NW,12.7,24.2,0.00,Snow,Light Snow,310,2013-03-14 04:48:00
1:09 AM,21.2,17.6,86,30.14,3.0,NW,12.7,-,0.01,Snow,Light Snow,310,2013-03-14 05:09:00
1:39 AM,21.2,17.6,86,30.14,2.0,WNW,10.4,-,0.01,Snow,Light Snow,300,2013-03-14 05:39:00
1:51 AM,21.9,18.0,85,30.25,2.0,WNW,13.8,-,0.01,Snow,Light Snow,300,2013-03-14 05:51:00
2:10 AM,21.2,17.6,86,30.14,3.0,WNW,12.7,18.4,0.00,Snow,Light Snow,290,2013-03-14 06:10:00
2:35 AM,21.2,17.6,86,30.14,2.5,NW,12.7,21.9,0.00,Snow,Light Snow,310,2013-03-14 06:35:00
2:43 AM,21.2,15.8,80,30.14,4.0,NW,15.0,20.7,0.00,Snow,Light Snow,310,2013-03-14 06:43:00
2:51 AM,21.9,16.0,78,30.25,3.0,WNW,18.4,24.2,0.00,Snow,Light Snow,300,2013-03-14 06:51:00
3:15 AM,21.2,15.8,80,30.15,5.0,WNW,16.1,24.2,0.00,Snow,Light Snow,300,2013-03-14 07:15:00
3:23 AM,21.2,17.6,86,30.15,2.5,NW,10.4,23.0,N/A,Snow,Light Snow,310,2013-03-14 07:23:00
3:49 AM,21.2,15.8,80,30.14,7.0,WNW,12.7,19.6,0.00,Snow,Light Snow,300,2013-03-14 07:49:00
3:51 AM,21.9,16.0,78,30.25,6.0,WNW,10.4,19.6,0.00,Snow,Light Snow,300,2013-03-14 07:51:00
4:09 AM,21.2,17.6,86,30.15,2.0,NW,12.7,-,0.00,Snow,Light Snow,320,2013-03-14 08:09:00
4:16 AM,21.2,17.6,86,30.15,1.2,NW,9.2,-,0.00,Snow,Light Snow,320,2013-03-14 08:16:00
4:51 AM,21.0,17.1,85,30.27,1.5,NW,10.4,-,0.01,Snow,Light Snow,320,2013-03-14 08:51:00
5:19 AM,21.2,15.8,80,30.16,3.0,WNW,15.0,19.6,0.00,Snow,Light Snow,300,2013-03-14 09:19:00
5:23 AM,21.2,15.8,80,30.16,6.0,WNW,15.0,21.9,0.00,Snow,Light Snow,300,2013-03-14 09:23:00
5:51 AM,19.9,12.9,74,30.29,7.0,NW,11.5,-,0.00,Snow,Light Snow,310,2013-03-14 09:51:00
6:03 AM,21.2,12.2,68,30.17,9.0,NW,11.5,26.5,0.00,,Overcast,320,2013-03-14 10:03:00
6:13 AM,21.2,12.2,68,30.17,7.0,NW,11.5,20.7,0.00,Snow,Light Snow,310,2013-03-14 10:13:00
6:51 AM,19.9,14.0,78,30.32,5.0,WNW,10.4,-,0.00,Snow,Light Snow,300,2013-03-14 10:51:00
7:51 AM,19.9,12.0,71,30.34,10.0,NW,9.2,19.6,0.00,,Overcast,310,2013-03-14 11:51:00
8:51 AM,21.0,12.0,68,30.35,10.0,NW,11.5,20.7,N/A,,Overcast,320,2013-03-14 12:51:00
9:47 AM,21.2,10.4,63,30.22,10.0,WNW,13.8,20.7,N/A,,Scattered Clouds,290,2013-03-14 13:47:00
9:51 AM,21.9,10.9,63,30.35,10.0,NW,13.8,20.7,N/A,,Partly Cloudy,310,2013-03-14 13:51:00
10:51 AM,25.0,12.0,58,30.34,10.0,WNW,9.2,-,N/A,,Clear,300,2013-03-14 14:51:00
11:51 AM,26.1,10.9,53,30.33,10.0,NW,9.2,-,N/A,,Clear,310,2013-03-14 15:51:00
12:51 PM,28.9,12.9,51,30.31,10.0,NNW,12.7,19.6,N/A,,Clear,330,2013-03-14 16:51:00
1:51 PM,32.0,14.0,48,30.29,10.0,NW,11.5,23.0,N/A,,Clear,320,2013-03-14 17:51:00
2:51 PM,35.1,15.1,44,30.25,10.0,NW,13.8,-,N/A,,Clear,320,2013-03-14 18:51:00
3:51 PM,37.0,14.0,39,30.23,10.0,NW,9.2,19.6,N/A,,Clear,310,2013-03-14 19:51:00
4:51 PM,37.9,12.9,36,30.23,10.0,WNW,12.7,19.6,N/A,,Clear,300,2013-03-14 20:51:00
5:51 PM,37.9,12.9,36,30.22,10.0,WNW,16.1,20.7,N/A,,Clear,290,2013-03-14 21:51:00
6:51 PM,35.1,12.0,39,30.23,10.0,NW,10.4,-,N/A,,Clear,310,2013-03-14 22:51:00
7:51 PM,34.0,12.0,40,30.24,10.0,WNW,6.9,-,N/A,,Clear,300,2013-03-14 23:51:00
8:51 PM,32.0,12.9,45,30.23,10.0,WNW,5.8,-,N/A,,Clear,300,2013-03-15 00:51:00
9:51 PM,30.9,12.9,47,30.24,10.0,WNW,4.6,-,N/A,,Clear,290,2013-03-15 01:51:00
10:51 PM,30.0,12.9,49,30.24,10.0,WNW,5.8,-,N/A,,Clear,300,2013-03-15 02:51:00
11:51 PM,28.9,12.0,49,30.25,10.0,NW,4.6,-,N/A,,Clear,310,2013-03-15 03:51:00